DW6016 Weather Reports


Display with metric or nautical units.
time (UTC)temp
F
wind
direction
speed
MPH
gust
MPH
rain 1hr
in
rain 24hr
in
rain mn
in
humidity
%
barometer
mb
20260906190752 57 312 0.0 0.0 0.00 0.51 0.51 99 1017.9
20260906190246 57 303 0.0 0.0 0.00 0.51 0.51 99 1017.9
20260906185745 57 334 0.0 0.0 0.00 0.51 0.51 99 1017.8
20260906185244 57 305 0.0 0.0 0.00 0.51 0.51 99 1017.8
20260906184739 57 304 0.0 0.0 0.00 0.51 0.51 99 1017.9
20260906184234 57 305 0.0 0.0 0.00 0.51 0.51 99 1017.8
20260906183730 57 304 0.0 0.0 0.00 0.51 0.51 99 1018.0
20260906183226 57 304 0.0 0.0 0.00 0.51 0.51 99 1017.7
20260906182725 57 304 0.0 0.0 0.00 0.51 0.51 99 1017.7
20260906182222 57 304 0.0 0.0 0.00 0.51 0.51 99 1017.8
20260906181711 57 305 0.0 0.0 0.00 0.51 0.51 99 1017.7
20260906181208 57 307 0.0 0.0 0.00 0.51 0.51 99 1017.9
20260906180702 57 307 0.0 0.0 0.07 0.51 0.51 99 1017.7
20260906180157 57 307 0.0 0.0 0.07 0.51 0.51 99 1017.7
20260906175655 57 307 0.0 0.0 0.07 0.51 0.51 99 1017.6
20260906175150 57 307 0.0 0.0 0.00 0.50 0.50 99 1017.6
20260906174648 57 306 0.0 0.0 0.05 0.50 0.50 99 1017.7
20260906174143 57 307 0.0 0.0 0.05 0.50 0.50 99 1017.7
20260906173639 57 307 0.0 0.0 0.00 0.49 0.49 99 1017.7
20260906173134 57 306 0.0 0.0 0.07 0.49 0.49 99 1017.7
20260906172633 57 306 0.0 0.0 0.07 0.49 0.49 99 1017.6
20260906172129 56 306 0.0 0.0 0.05 0.48 0.48 99 1017.7
20260906171628 56 314 0.0 0.0 0.12 0.48 0.48 99 1017.5
20260906171125 56 314 0.0 0.0 0.12 0.47 0.47 99 1017.7
20260906170621 56 315 0.0 0.0 0.12 0.46 0.46 99 1017.7
20260906170120 56 316 0.0 0.0 0.12 0.45 0.45 99 1017.7
20260906165616 56 301 0.0 0.0 0.17 0.44 0.44 99 1017.5
20260906165112 56 301 0.0 0.0 0.24 0.43 0.43 99 1017.6
20260906164610 55 316 0.0 0.0 0.19 0.41 0.41 99 1017.6
20260906164106 56 343 0.0 1.0 0.24 0.40 0.40 99 1017.7
20260906163602 56 321 0.0 0.0 0.24 0.38 0.38 99 1017.3
20260906163057 56 321 0.0 0.0 0.24 0.36 0.36 99 1017.3
20260906162554 55 321 0.0 0.0 0.19 0.34 0.34 99 1017.5
20260906162049 55 321 0.0 0.0 0.24 0.33 0.33 99 1017.3
20260906161544 55 321 0.0 0.0 0.12 0.30 0.30 99 1017.2
20260906161043 55 322 0.0 0.0 0.12 0.29 0.29 99 1017.4
20260906160542 55 321 0.0 0.0 0.12 0.28 0.28 99 1017.4
20260906160041 55 321 0.0 0.0 0.12 0.27 0.27 99 1017.2
20260906155538 55 321 0.0 0.0 0.19 0.26 0.26 99 1017.3
20260906155034 55 322 0.0 0.0 0.19 0.25 0.25 99 1017.1
20260906154529 55 322 0.0 0.0 0.17 0.24 0.24 99 1017.2
20260906154028 55 322 0.0 0.0 0.12 0.22 0.22 99 1017.2
20260906153527 55 322 0.0 0.0 0.12 0.21 0.21 99 1017.1
20260906153023 55 322 0.0 0.0 0.12 0.20 0.20 99 1017.3
20260906152517 55 322 0.0 0.0 0.07 0.19 0.19 99 1017.1
20260906152016 55 322 0.0 0.0 0.12 0.19 0.19 99 1017.1
20260906151512 55 322 0.0 0.0 0.12 0.18 0.18 99 1017.3
20260906151008 55 323 0.0 0.0 0.12 0.17 0.17 99 1017.1
20260906150502 55 304 0.0 0.0 0.12 0.16 0.16 99 1017.0
20260906150001 55 304 0.0 0.0 0.12 0.15 0.15 99 1017.2
20260906145456 55 304 0.0 0.0 0.12 0.14 0.14 99 1016.9
20260906144956 56 309 0.0 0.0 0.07 0.13 0.13 99 1017.1
20260906144451 56 309 0.0 0.0 0.14 0.13 0.13 99 1016.9
20260906143946 56 309 0.0 0.0 0.07 0.12 0.12 99 1016.9
20260906143441 56 311 0.0 0.0 0.05 0.11 0.11 99 1016.8
20260906142937 56 311 0.0 0.0 0.05 0.11 0.11 99 1016.7
20260906142437 57 311 0.0 0.0 0.00 0.10 0.10 99 1016.6
20260906141932 57 311 0.0 0.0 0.00 0.10 0.10 99 1016.6
20260906141432 57 312 0.0 0.0 0.07 0.10 0.10 99 1016.8
20260906140926 57 312 0.0 0.0 0.07 0.10 0.10 99 1016.7
20260906140421 57 312 0.0 0.0 0.00 0.09 0.09 99 1016.6
20260906135919 57 312 0.0 0.0 0.05 0.09 0.09 99 1016.6
20260906135418 57 312 0.0 0.0 0.12 0.09 0.09 99 1016.6
20260906134914 57 330 0.0 0.0 0.12 0.08 0.08 99 1016.6
20260906134409 57 310 0.0 0.0 0.12 0.08 0.08 99 1016.4
20260906133904 57 310 0.0 0.0 0.07 0.06 0.06 99 1016.4
20260906133400 57 310 0.0 0.0 0.12 0.06 0.06 99 1016.2
20260906132855 57 310 0.0 0.0 0.12 0.05 0.05 99 1016.1
20260906132350 57 310 0.0 0.0 0.12 0.04 0.04 99 1016.0
20260906131846 57 310 0.0 0.0 0.12 0.03 0.03 99 1016.1
20260906131341 57 310 0.0 0.0 0.07 0.02 0.02 99 1016.1
20260906130837 57 310 0.0 0.0 0.00 0.01 0.01 99 1016.0
20260906130336 57 310 0.0 0.0 0.00 0.01 0.01 99 1016.1
20260906125835 57 310 0.0 0.0 0.00 0.01 0.01 99 1016.0
20260906125332 57 310 0.0 0.0 0.00 0.01 0.01 99 1016.0
20260906124827 57 310 0.0 0.0 0.00 0.01 0.01 98 1016.1
20260906124324 57 310 0.0 0.0 0.00 0.01 0.01 98 1016.1
20260906123822 57 310 0.0 0.0 0.00 0.01 0.01 97 1016.0
20260906123318 57 310 0.0 0.0 0.00 0.01 0.01 97 1015.9
20260906122817 57 310 0.0 0.0 0.00 0.01 0.01 96 1016.1
20260906122312 57 310 0.0 0.0 0.00 0.01 0.01 96 1016.2
20260906121809 58 310 0.0 0.0 0.07 0.01 0.01 95 1016.4
20260906121305 58 310 0.0 0.0 0.07 0.01 0.01 95 1016.3
20260906120801 58 310 0.0 0.0 0.00 0.00 0.00 94 1016.4
20260906120257 58 310 0.0 0.0 0.00 0.00 0.00 93 1016.4
20260906115753 58 310 0.0 0.0 0.00 0.00 0.00 93 1016.4
20260906115248 58 310 0.0 0.0 0.00 0.00 0.00 93 1016.5
20260906114747 58 312 0.0 0.0 0.00 0.00 0.00 92 1016.3
20260906114242 58 311 0.0 0.0 0.00 0.00 0.00 92 1016.4
20260906113738 58 313 0.0 0.0 0.00 0.00 0.00 92 1016.3
20260906113237 58 318 0.0 0.0 0.00 0.00 0.00 92 1016.3
20260906112737 58 319 0.0 0.0 0.00 0.00 0.00 92 1016.3
20260906112233 59 319 0.0 0.0 0.00 0.00 0.00 92 1016.3
20260906111733 58 327 1.0 1.0 0.00 0.00 0.00 92 1016.4
20260906111227 58 330 0.0 1.0 0.00 0.00 0.00 93 1016.3
20260906110722 58 329 0.0 0.0 0.00 0.00 0.00 93 1016.3
20260906110218 58 330 0.0 0.0 0.00 0.00 0.00 93 1016.0
20260906105717 58 316 0.0 0.0 0.00 0.00 0.00 93 1016.1
20260906105214 58 316 0.0 0.0 0.00 0.00 0.00 93 1016.0
20260906104713 58 321 0.0 0.0 0.00 0.00 0.00 93 1016.2
20260906104212 58 321 0.0 0.0 0.00 0.00 0.00 93 1016.0
20260906103710 58 321 0.0 0.0 0.00 0.00 0.00 92 1016.1
20260906103205 59 321 0.0 0.0 0.00 0.00 0.00 92 1016.1
20260906102701 59 321 0.0 0.0 0.00 0.00 0.00 92 1016.2
20260906102159 59 321 0.0 0.0 0.00 0.00 0.00 92 1016.1
20260906101654 59 317 0.0 0.0 0.00 0.00 0.00 92 1016.2
20260906101149 59 313 0.0 1.0 0.00 0.00 0.00 92 1016.3
20260906100644 59 320 0.0 1.0 0.00 0.00 0.00 92 1016.2
20260906100139 59 316 0.0 0.0 0.00 0.00 0.00 92 1016.2
20260906095634 59 306 0.0 0.0 0.00 0.00 0.00 92 1016.2
20260906095129 59 309 0.0 0.0 0.00 0.00 0.00 92 1016.0
20260906094628 59 314 0.0 0.0 0.00 0.00 0.00 91 1015.9
20260906094124 59 330 1.0 1.0 0.00 0.00 0.00 91 1016.0
20260906093620 59 303 0.0 0.0 0.00 0.00 0.00 91 1016.1
20260906093114 59 309 0.0 0.0 0.00 0.00 0.00 91 1016.1
20260906092609 59 310 0.0 0.0 0.00 0.00 0.00 91 1015.9
20260906092104 59 312 0.0 0.0 0.00 0.00 0.00 92 1016.3
20260906091601 59 305 0.0 0.0 0.00 0.00 0.00 92 1016.1
20260906091057 59 314 0.0 0.0 0.00 0.00 0.00 92 1016.1
20260906090557 59 302 1.0 1.0 0.00 0.00 0.00 92 1015.9
20260906090057 59 304 0.0 0.0 0.00 0.00 0.00 92 1015.9
20260906085556 59 304 0.0 1.0 0.00 0.00 0.00 92 1016.1
20260906085050 59 304 0.0 1.0 0.00 0.00 0.00 91 1015.9
20260906084545 59 303 1.0 1.0 0.00 0.00 0.00 91 1016.3
20260906084044 60 302 0.0 0.0 0.00 0.00 0.00 90 1016.1
20260906083540 60 299 0.0 1.0 0.00 0.00 0.00 90 1016.1
20260906083039 60 327 0.0 1.0 0.00 0.00 0.00 90 1016.0
20260906082535 60 332 0.0 0.0 0.00 0.00 0.00 89 1016.0
20260906082030 60 330 0.0 1.0 0.00 0.00 0.00 89 1016.1
20260906081526 60 312 0.0 1.0 0.00 0.00 0.00 90 1016.1
20260906081021 60 316 0.0 0.0 0.00 0.00 0.00 89 1016.0
20260906080518 60 308 0.0 0.0 0.00 0.00 0.00 89 1016.0
20260906080014 60 307 0.0 0.0 0.00 0.00 0.00 88 1016.0
20260906075507 60 305 0.0 0.0 0.00 0.00 0.00 88 1016.1
20260906075002 60 299 0.0 0.0 0.00 0.00 0.00 88 1016.1
20260906074457 60 299 1.0 1.0 0.00 0.00 0.00 88 1016.2
20260906073955 60 314 0.0 0.0 0.00 0.00 0.00 88 1016.1
20260906073450 60 316 0.0 0.0 0.00 0.00 0.00 88 1016.2
20260906072946 60 316 0.0 0.0 0.00 0.00 0.00 88 1016.0
20260906072441 60 316 0.0 0.0 0.00 0.00 0.00 88 1016.1
20260906071938 60 320 0.0 0.0 0.00 0.00 0.00 88 1016.1
20260906071433 60 305 0.0 0.0 0.00 0.00 0.00 88 1016.1
20260906070929 60 309 0.0 0.0 0.00 0.00 0.00 87 1016.2
20260906070425 60 317 0.0 0.0 0.00 0.00 0.00 87 1016.2
20260906065921 60 317 0.0 0.0 0.00 0.00 0.00 87 1016.1
20260906065420 60 316 0.0 0.0 0.00 0.00 0.00 87 1016.2
20260906064916 60 315 0.0 0.0 0.00 0.00 0.00 87 1016.3
20260906064412 60 315 0.0 0.0 0.00 0.00 0.00 86 1016.2
20260906063907 60 309 0.0 0.0 0.00 0.00 0.00 86 1016.3
20260906063402 60 308 0.0 0.0 0.00 0.00 0.00 86 1016.1
20260906062857 60 310 0.0 0.0 0.00 0.00 0.00 86 1016.4
20260906062356 60 308 0.0 0.0 0.00 0.00 0.00 86 1016.1
20260906061852 60 308 0.0 0.0 0.00 0.00 0.00 86 1016.2
20260906061348 60 308 0.0 0.0 0.00 0.00 0.00 86 1016.2
20260906060842 61 308 0.0 0.0 0.00 0.00 0.00 85 1016.0
20260906060340 61 310 0.0 0.0 0.00 0.00 0.00 85 1016.2
20260906055836 61 314 0.0 0.0 0.00 0.00 0.00 85 1016.4
20260906055331 61 316 0.0 0.0 0.00 0.00 0.00 84 1016.6
20260906054826 61 318 1.0 1.0 0.00 0.00 0.00 84 1016.4
20260906054321 60 7 1.0 1.0 0.00 0.00 0.00 85 1016.4
20260906053818 60 301 0.0 0.0 0.00 0.00 0.00 87 1016.3
20260906053313 59 309 0.0 0.0 0.00 0.00 0.00 87 1016.3
20260906052809 59 306 0.0 0.0 0.00 0.00 0.00 87 1016.4
20260906052306 59 309 0.0 0.0 0.00 0.00 0.00 88 1016.4
20260906051802 58 310 0.0 0.0 0.00 0.00 0.00 88 1016.5
20260906051301 58 310 0.0 0.0 0.00 0.00 0.00 88 1016.4
20260906050756 58 307 0.0 0.0 0.00 0.00 0.00 88 1016.4
20260906050252 58 307 0.0 0.0 0.00 0.00 0.00 88 1016.4
20260906045750 58 307 0.0 0.0 0.00 0.00 0.00 88 1016.4
20260906045245 58 307 0.0 0.0 0.00 0.00 0.00 88 1016.2
20260906044741 58 307 0.0 0.0 0.00 0.00 0.00 88 1016.6
20260906044236 58 307 0.0 0.0 0.00 0.00 0.00 88 1016.7
20260906043732 58 307 0.0 0.0 0.00 0.00 0.00 88 1016.4
20260906043228 58 307 0.0 0.0 0.00 0.00 0.00 88 1016.6
20260906042727 58 307 0.0 0.0 0.00 0.00 0.00 87 1016.7
20260906042226 58 307 0.0 0.0 0.00 0.00 0.00 87 1016.6
20260906041722 58 307 0.0 0.0 0.00 0.00 0.00 86 1016.5
20260906041217 59 307 0.0 0.0 0.00 0.00 0.00 86 1016.6
20260906040713 59 307 0.0 0.0 0.00 0.00 0.00 85 1016.6
20260906040208 59 307 0.0 0.0 0.00 0.00 0.00 84 1016.6
20260906035703 59 307 0.0 0.0 0.00 0.00 0.00 84 1016.6
20260906035159 60 307 0.0 0.0 0.00 0.00 0.00 84 1016.8
20260906034653 60 307 0.0 0.0 0.00 0.00 0.00 84 1016.4
20260906034148 59 307 0.0 0.0 0.00 0.00 0.00 84 1016.5
20260906033644 59 307 0.0 0.0 0.00 0.00 0.00 82 1016.2
20260906033143 60 307 0.0 0.0 0.00 0.00 0.00 81 1016.1
20260906032640 60 307 0.0 0.0 0.00 0.00 0.00 80 1016.2
20260906032140 61 307 0.0 0.0 0.00 0.00 0.00 80 1016.1
20260906031635 61 307 0.0 0.0 0.00 0.00 0.00 79 1016.0
20260906031131 61 307 0.0 0.0 0.00 0.00 0.00 77 1016.1
20260906030630 62 307 0.0 0.0 0.00 0.00 0.00 77 1015.9
20260906030126 62 307 0.0 0.0 0.00 0.00 0.00 76 1016.2
20260906025625 62 307 0.0 0.0 0.00 0.00 0.00 74 1016.0
20260906025124 63 307 0.0 0.0 0.00 0.00 0.00 74 1016.1
20260906024619 63 307 0.0 0.0 0.00 0.00 0.00 72 1015.9
20260906024113 64 307 0.0 0.0 0.00 0.00 0.00 73 1016.1
20260906023609 64 307 0.0 0.0 0.00 0.00 0.00 72 1016.0
20260906023103 64 308 0.0 0.0 0.00 0.00 0.00 70 1016.0
20260906022559 65 308 0.0 0.0 0.00 0.00 0.00 69 1015.9
20260906022054 65 307 0.0 0.0 0.00 0.00 0.00 68 1016.1
20260906021550 66 307 0.0 1.0 0.00 0.00 0.00 67 1016.0
20260906021049 66 307 0.0 0.0 0.00 0.00 0.00 66 1016.2
20260906020549 66 310 0.0 0.0 0.00 0.00 0.00 66 1016.2
20260906020048 66 311 0.0 0.0 0.00 0.00 0.00 67 1016.0
20260906015548 67 310 0.0 0.0 0.00 0.00 0.00 66 1016.1
20260906015047 68 310 0.0 0.0 0.00 0.00 0.00 63 1016.0
20260906014542 69 310 0.0 1.0 0.00 0.00 0.00 62 1016.0
20260906014038 69 315 0.0 0.0 0.00 0.00 0.00 60 1016.1
20260906013533 69 308 1.0 1.0 0.00 0.00 0.00 59 1016.2
20260906013029 70 345 0.0 1.0 0.00 0.00 0.00 57 1016.1
20260906012524 70 311 0.0 0.0 0.00 0.00 0.00 57 1016.0
20260906012023 71 321 0.0 1.0 0.00 0.00 0.00 58 1016.3
20260906011519 71 105 2.0 2.0 0.00 0.00 0.00 56 1016.0
20260906011019 71 309 0.0 0.0 0.00 0.00 0.00 56 1016.0
20260906010514 71 333 1.0 1.0 0.00 0.00 0.00 55 1015.9
20260906010011 71 318 1.0 1.0 0.00 0.00 0.00 56 1016.0
20260906005510 71 295 0.0 0.0 0.00 0.00 0.00 56 1015.9
20260906005009 71 296 0.0 0.0 0.00 0.00 0.00 55 1016.2
20260906004503 71 301 0.0 0.0 0.00 0.00 0.00 57 1016.1
20260906003958 71 313 3.0 3.0 0.00 0.00 0.00 55 1016.1
20260906003453 71 310 0.0 0.0 0.00 0.00 0.00 55 1016.3
20260906002948 71 334 0.0 0.0 0.00 0.00 0.00 54 1016.2
20260906002443 71 326 0.0 0.0 0.00 0.00 0.00 54 1016.3
20260906001938 71 96 3.0 3.0 0.00 0.00 0.00 53 1016.0
20260906001434 71 67 2.0 3.0 0.00 0.00 0.00 53 1015.9
20260906000928 71 297 1.0 1.0 0.00 0.00 0.00 54 1016.3
20260906000425 71 298 0.0 1.0 0.00 0.00 0.00 54 1016.1
20260905235913 71 317 1.0 1.0 0.00 0.00 0.00 56 1016.2
20260905235413 71 61 2.0 3.0 0.00 0.00 0.00 55 1016.2
20260905234908 71 300 0.0 0.0 0.00 0.00 0.00 56 1016.2
20260905234403 71 65 1.0 1.0 0.00 0.00 0.00 56 1016.1
20260905233858 70 276 0.0 1.0 0.00 0.00 0.00 56 1016.1
20260905233353 70 309 3.0 3.0 0.00 0.00 0.00 57 1016.2
20260905232852 70 342 0.0 0.0 0.00 0.00 0.00 57 1016.3
20260905232349 70 307 2.0 2.0 0.00 0.00 0.00 56 1016.1
20260905231844 70 48 1.0 1.0 0.00 0.00 0.00 58 1016.4
20260905231338 70 84 2.0 3.0 0.00 0.00 0.00 58 1016.4
20260905230836 70 317 1.0 2.0 0.00 0.00 0.00 60 1016.3
20260905230333 69 310 1.0 1.0 0.00 0.00 0.00 59 1016.3
20260905225832 70 302 3.0 3.0 0.00 0.00 0.00 59 1016.4
20260905225327 69 300 1.0 1.0 0.00 0.00 0.00 60 1016.5
20260905224822 69 304 3.0 3.0 0.00 0.00 0.00 60 1016.7
20260905224318 69 304 0.0 0.0 0.00 0.00 0.00 61 1016.6
20260905223812 70 316 2.0 2.0 0.00 0.00 0.00 59 1016.6
20260905223310 70 282 1.0 1.0 0.00 0.00 0.00 57 1016.6
20260905222805 69 304 0.0 0.0 0.00 0.00 0.00 62 1016.6
20260905222306 70 310 3.0 3.0 0.00 0.00 0.00 57 1016.7
20260905221800 70 322 3.0 5.0 0.00 0.00 0.00 58 1016.7
20260905221256 69 99 1.0 1.0 0.00 0.00 0.00 61 1016.7
20260905220752 69 317 1.0 1.0 0.00 0.00 0.00 60 1016.8
20260905220248 69 309 0.0 0.0 0.00 0.00 0.00 61 1016.9
20260905215747 69 304 2.0 2.0 0.00 0.00 0.00 60 1016.8
20260905215243 70 308 1.0 1.0 0.00 0.00 0.00 58 1016.9
20260905214739 71 297 2.0 2.0 0.00 0.00 0.00 58 1016.8
20260905214235 71 311 0.0 0.0 0.00 0.00 0.00 58 1016.8
20260905213730 72 305 0.0 1.0 0.00 0.00 0.00 60 1016.9
20260905213226 71 341 0.0 1.0 0.00 0.00 0.00 60 1017.0
20260905212721 71 312 1.0 1.0 0.00 0.00 0.00 58 1017.0
20260905212219 71 312 1.0 1.0 0.00 0.00 0.00 59 1016.9
20260905211714 70 311 0.0 0.0 0.00 0.00 0.00 60 1016.9
20260905211209 69 303 1.0 2.0 0.00 0.00 0.00 62 1017.0
20260905210706 69 307 1.0 1.0 0.00 0.00 0.00 62 1017.0
20260905210206 70 319 2.0 2.0 0.00 0.00 0.00 61 1017.0
20260905205705 71 300 0.0 1.0 0.00 0.00 0.00 59 1017.0
20260905205205 72 222 2.0 2.0 0.00 0.00 0.00 58 1017.2
20260905204705 72 336 1.0 1.0 0.00 0.00 0.00 56 1017.1
20260905204200 70 314 1.0 1.0 0.00 0.00 0.00 61 1017.2
20260905203654 69 320 0.0 0.0 0.00 0.00 0.00 61 1017.2
20260905203150 69 315 0.0 0.0 0.00 0.00 0.00 63 1017.2
20260905202645 68 303 2.0 3.0 0.00 0.00 0.00 63 1017.4
20260905202140 69 297 1.0 1.0 0.00 0.00 0.00 65 1017.4
20260905201635 68 320 0.0 1.0 0.00 0.00 0.00 65 1017.2
20260905201130 69 297 1.0 2.0 0.00 0.00 0.00 63 1017.4
20260905200626 69 307 0.0 0.0 0.00 0.00 0.00 64 1017.3
20260905200121 68 313 0.0 1.0 0.00 0.00 0.00 65 1017.5
20260905195619 67 311 3.0 3.0 0.00 0.00 0.00 65 1017.3
20260905195115 67 304 1.0 1.0 0.00 0.00 0.00 67 1017.5
20260905194615 67 309 2.0 2.0 0.00 0.00 0.00 67 1017.4
20260905194114 67 308 0.0 0.0 0.00 0.00 0.00 67 1017.4
20260905193609 68 129 3.0 3.0 0.00 0.00 0.00 67 1017.5
20260905193104 67 309 0.0 1.0 0.00 0.00 0.00 68 1017.7
20260905192600 68 271 1.0 1.0 0.00 0.00 0.00 68 1017.6
20260905192055 68 285 1.0 1.0 0.00 0.00 0.00 68 1017.8
20260905191553 68 289 2.0 2.0 0.00 0.00 0.00 68 1017.8
20260905191048 68 49 1.0 2.0 0.00 0.00 0.00 67 1017.6